TimePST,TemperatureF,Dew PointF,Humidity,Sea Level PressureIn,VisibilityMPH,Wind Direction,Wind SpeedMPH,Gust SpeedMPH,PrecipitationIn,Events,Conditions,WindDirDegrees,DateUTC
12:53 AM,30.0,18.0,61,30.24,10.0,South,11.5,-,N/A,,Clear,170,2012-11-04 07:53:00
1:53 AM,28.9,17.1,61,30.25,10.0,South,11.5,-,N/A,,Clear,170,2012-11-04 08:53:00
1:53 AM,28.9,17.1,61,30.26,10.0,South,11.5,-,N/A,,Clear,180,2012-11-04 09:53:00
2:53 AM,28.0,17.1,63,30.26,10.0,South,10.4,-,N/A,,Clear,180,2012-11-04 10:53:00
3:53 AM,27.0,17.1,66,30.28,10.0,South,11.5,-,N/A,,Clear,170,2012-11-04 11:53:00
4:53 AM,27.0,17.1,66,30.35,10.0,South,12.7,-,N/A,,Clear,170,2012-11-04 12:53:00
5:53 AM,25.0,17.1,72,30.39,10.0,South,11.5,-,N/A,,Clear,170,2012-11-04 13:53:00
6:53 AM,30.0,18.0,61,30.41,10.0,South,12.7,-,N/A,,Clear,170,2012-11-04 14:53:00
7:53 AM,37.9,21.9,53,30.39,10.0,South,10.4,-,N/A,,Clear,170,2012-11-04 15:53:00
8:53 AM,48.9,21.9,35,30.35,10.0,SSE,5.8,-,N/A,,Clear,150,2012-11-04 16:53:00
9:53 AM,55.9,21.9,27,30.35,10.0,Calm,Calm,-,N/A,,Clear,0,2012-11-04 17:53:00
10:53 AM,61.0,24.1,24,30.31,10.0,North,8.1,-,N/A,,Clear,360,2012-11-04 18:53:00
11:53 AM,63.0,26.1,25,30.29,10.0,North,11.5,-,N/A,,Clear,360,2012-11-04 19:53:00
12:53 PM,64.0,27.0,25,30.28,10.0,NNE,10.4,16.1,0.01,,Clear,30,2012-11-04 20:53:00
1:53 PM,64.9,26.1,23,30.27,10.0,North,12.7,-,N/A,,Clear,10,2012-11-04 21:53:00
2:53 PM,64.0,27.0,25,30.29,10.0,NNE,12.7,19.6,N/A,,Clear,20,2012-11-04 22:53:00
3:53 PM,62.1,27.0,26,30.31,10.0,North,10.4,-,N/A,,Clear,360,2012-11-04 23:53:00
4:53 PM,55.0,27.0,34,30.35,10.0,North,10.4,-,N/A,,Clear,360,2012-11-05 00:53:00
5:53 PM,50.0,27.0,41,30.40,10.0,North,3.5,-,N/A,,Clear,360,2012-11-05 01:53:00
6:53 PM,39.0,25.0,57,30.44,10.0,Calm,Calm,-,N/A,,Clear,0,2012-11-05 02:53:00
7:53 PM,39.0,26.1,60,30.42,10.0,South,8.1,-,N/A,,Clear,180,2012-11-05 03:53:00
8:53 PM,37.4,24.8,60,30.47,10.0,South,9.2,-,N/A,,Clear,180,2012-11-05 04:53:00
9:53 PM,33.1,24.1,70,30.39,10.0,South,6.9,-,N/A,,Clear,170,2012-11-05 05:53:00
10:53 PM,33.1,23.0,66,30.38,10.0,South,10.4,-,N/A,,Clear,170,2012-11-05 06:53:00